This is the latest recevied weather packets stored in our database for station/object W0AKY-13. If no packets are shown the sender has not sent any weather packets the latest 10 day(s).
| Time | Temp. | Humidity | Pressure | Rain* | Wind** | Luminosity | Snow |
|---|---|---|---|---|---|---|---|
| 1788338781 | 23.89° C | 71% | 1014.3 hPa | 0 mm | - | 0 W/m² | - |
| 1788338476 | 23.89° C | 71% | 1013.9 hPa | 0 mm | - | 0 W/m² | - |
| 1788338177 | 23.89° C | 71% | 1014 hPa | 0 mm | - | 0 W/m² | - |
| 1788337876 | 23.89° C | 72% | 1013.9 hPa | 0 mm | - | 0 W/m² | - |
| 1788337572 | 23.89° C | 71% | 1014.1 hPa | 0 mm | - | 0 W/m² | - |
| 1788337268 | 24.44° C | 69% | 1014.3 hPa | 0 mm | - | 0 W/m² | - |
| 1788336981 | 24.44° C | 69% | 1014.1 hPa | 0 mm | - | 0 W/m² | - |
| 1788336665 | 24.44° C | 69% | 1014.2 hPa | 0 mm | - | 0 W/m² | - |
| 1788336360 | 24.44° C | 69% | 1014.2 hPa | 0 mm | - | 0 W/m² | - |
| 1788336056 | 23.89° C | 71% | 1014.1 hPa | 0 mm | - | 0 W/m² | - |
| 1788335755 | 23.89° C | 70% | 1013.9 hPa | 0 mm | - | 0 W/m² | - |
| 1788335452 | 23.89° C | 71% | 1013.9 hPa | 0 mm | - | 0 W/m² | - |
| 1788335147 | 23.89° C | 71% | 1013.9 hPa | 0 mm | - | 0 W/m² | - |
| 1788334842 | 24.44° C | 72% | 1014.1 hPa | 0 mm | - | 0 W/m² | - |
| 1788334538 | 24.44° C | 71% | 1014 hPa | 0 mm | - | 0 W/m² | - |
| 1788334234 | 24.44° C | 70% | 1013.9 hPa | 0 mm | - | 0 W/m² | - |
| 1788333929 | 24.44° C | 72% | 1013.9 hPa | 0 mm | - | 0 W/m² | - |
| 1788319178 | 27.78° C | 62% | 1013.5 hPa | 0 mm | - | 0 W/m² | - |
| 1788318874 | 27.78° C | 62% | 1013.5 hPa | 0 mm | - | 0 W/m² | - |
| 1788318571 | 28.33° C | 61% | 1013.4 hPa | 0 mm | - | 0 W/m² | - |
| 1788318270 | 28.33° C | 61% | 1013.4 hPa | 0 mm | - | 0 W/m² | - |
| 1788317969 | 28.33° C | 61% | 1013.3 hPa | 0 mm | - | 0 W/m² | - |
| 1788317665 | 28.33° C | 62% | 1013.4 hPa | 0 mm | - | 0 W/m² | - |
| 1788317361 | 28.33° C | 62% | 1013.1 hPa | 0 mm | - | 0 W/m² | - |
| 1788317055 | 28.33° C | 62% | 1013.1 hPa | 0 mm | - | 0 W/m² | - |
* Rain latest hour (hover to see other rain measurements)
** Current wind speed in m/s (hover to see current wind gust speed)